Wind_Speed
12 13 13 13 15 17 18 18 18 19 19 17 16 17 18 19 20 21 21 18 15 13 10 9 8 8 4 4 5 2 4 2 0 3 2 2 3 3 4 4 3 2 5 3 4 6 8
10 12 13 13 14 15 16 16 17 18 18 18 20 20 19 19 19 20 20 20 18 15 12 10 7 6 3 6 3 2 3 1 2 3 3 0 2 2 7 3 1 3 7 7 5 7 6
9 10 12 13 14 16 17 16 16 16 16 17 19 19 20 21 22 22 21 19 18 16 12 10 7 4 4 9 2 2 0 0 1 3 4 2 3 1 5 5 5 8 5 4 6 7 4
10 11 12 13 15 15 16 16 17 17 17 17 17 17 18 19 20 22 23 22 18 14 10 8 7 3 5 3 3 2 1 1 1 3 5 5 6 7 2 10 4 4 3 5 8 10 3
12 12 13 13 14 15 16 16 16 17 18 19 19 20 20 19 20 21 21 20 18 10 8 6 3 3 6 2 3 4 2 3 3 2 4 6 3 3 4 5 4 5 6 9 4 12 6
11 13 13 14 16 16 16 16 16 16 17 19 21 22 21 21 22 23 22 19 9 4 3 2 1 3 3 2 3 3 2 4 2 4 3 2 3 5 4 8 9 8 7 6 8 10 12
13 15 16 15 15 15 16 15 15 16 16 17 18 20 22 22 22 23 21 5 2 2 0 5 2 4 1 0 2 2 2 4 3 3 6 2 7 12 18 17 5 3 7 8 4 6 10
11 14 15 14 15 15 15 16 15 16 16 17 18 19 20 20 22 14 11 5 3 2 8 10 11 5 3 1 3 4 4 6 5 9 5 4 13 11 2 9 9 8 10 12 2 5 9
11 11 12 13 15 17 17 16 17 16 16 17 18 20 21 20 11 9 8 5 3 3 5 3 2 1 1 5 5 5 8 4 6 8 12 14 0 4 9 9 12 13 16 11 6 5 9
14 15 15 14 15 15 17 17 17 17 17 16 18 19 22 20 2 7 4 6 5 2 4 4 3 2 2 1 4 1 3 2 4 8 6 9 3 7 8 11 13 14 12 9 8 6 7
15 15 16 17 18 16 15 16 17 17 17 17 16 17 18 16 9 3 6 5 3 1 6 2 2 1 3 4 4 1 2 2 6 7 6 3 7 9 9 7 15 2 5 8 6 10 5
16 16 16 17 17 17 15 17 16 16 16 16 16 15 14 11 9 7 9 6 2 1 7 2 1 2 3 4 4 0 2 1 1 3 5 4 1 4 3 3 7 12 8 5 3 3 7
15 16 16 16 16 16 15 13 16 17 15 14 16 15 12 9 3 8 8 4 1 5 2 1 2 2 2 4 5 7 6 7 6 5 10 4 7 2 2 5 4 7 10 4 5 5 8
14 15 16 16 15 15 15 15 14 15 17 18 15 15 10 10 10 8 4 1 7 4 8 1 1 2 6 7 5 7 5 8 14 6 1 7 6 13 14 7 7 18 11 6 7 7 2
14 14 16 17 15 15 15 14 15 15 15 18 13 10 5 7 4 6 3 3 7 6 5 3 2 5 6 4 3 7 10 7 9 20 12 9 7 2 3 1 3 8 11 3 5 1 4
14 14 14 14 15 16 16 16 15 14 15 13 6 2 3 3 6 4 2 7 4 4 3 1 8 5 10 3 5 8 11 5 7 18 19 5 8 5 5 3 3 6 3 4 4 6 8
16 15 15 15 16 15 16 17 16 15 15 9 5 3 3 9 9 1 4 6 5 7 5 4 8 10 14 6 9 5 6 3 8 6 12 7 7 4 3 12 18 7 7 6 3 4 4
19 17 16 16 15 16 16 15 14 13 10 5 3 4 6 15 2 1 2 5 3 4 2 4 5 13 18 15 13 13 13 10 4 5 10 10 5 12 14 1 5 12 13 16 8 9 6
20 20 19 18 17 15 16 16 14 11 7 7 3 1 5 2 5 6 4 5 4 1 8 2 4 11 7 8 7 19 18 2 3 2 3 3 8 10 6 3 2 8 13 10 13 3 18
20 19 18 18 18 16 16 15 13 12 8 11 2 2 1 2 2 5 5 4 4 4 7 7 6 6 5 8 15 9 9 5 2 4 7 4 6 14 17 13 3 8 13 20 15 8 15
21 21 20 20 19 18 16 15 13 12 9 9 3 5 5 4 5 6 4 2 5 6 7 6 3 11 12 6 9 19 21 23 15 6 2 3 10 9 6 5 4 5 6 19 25 30 14
20 20 20 20 21 19 17 16 13 13 8 9 4 3 1 3 4 7 7 4 7 9 5 5 10 16 11 9 13 19 14 5 10 3 7 6 9 8 15 6 6 7 10 9 19 20 20
21 22 22 21 19 19 19 17 16 14 10 6 5 3 2 4 4 4 5 8 7 5 9 14 13 10 16 17 10 14 17 13 9 7 11 8 5 6 16 14 6 11 19 18 10 9 14
22 21 22 23 20 19 20 18 16 17 17 13 7 2 4 8 10 12 11 11 9 13 14 8 7 8 3 4 5 5 5 9 11 12 8 7 8 4 7 4 7 3 2 3 8 4 10
24 23 24 24 22 22 21 20 18 17 19 21 16 7 3 3 5 6 12 13 12 8 9 10 8 1 3 3 3 5 3 3 8 4 6 2 6 4 4 7 8 6 3 3 5 4 2
24 24 24 23 24 24 22 19 18 17 20 21 21 21 6 2 6 11 8 6 5 5 5 5 1 1 3 2 3 4 4 4 4 2 0 4 1 3 3 5 7 4 2 2 2 5 2
25 25 26 26 27 25 21 19 18 17 17 15 12 27 8 2 3 5 5 3 1 2 4 2 2 2 2 2 3 4 4 2 4 3 3 3 3 9 6 5 5 3 4 0 4 2 2
25 26 24 30 25 22 20 19 18 19 17 14 11 19 13 4 3 4 4 4 3 2 3 1 2 2 3 3 3 2 2 2 4 1 2 4 5 3 3 3 6 3 3 2 3 2 4
25 24 19 13 14 15 18 21 20 18 18 14 7 18 19 1 2 2 1 1 0 0 2 2 3 2 3 3 3 2 3 2 2 3 1 1 3 3 3 2 3 5 5 4 3 4 6
Wind_Direction
14 17 12 17 16 13 10 8 7 3 1 2 1 359 356 354 352 349 345 340 337 328 326 329 332 330 319 251 260 239 319 338 149 159 113 256 226 157 157 131 140 140 137 77 107 124 125
2 6 9 11 11 10 7 9 6 2 1 359 355 354 352 350 349 346 345 339 334 326 317 319 327 328 285 252 186 302 323 287 89 136 118 151 214 127 105 89 276 99 117 121 150 141 145
3 358 7 10 6 3 3 1 360 2 1 358 355 353 351 347 344 342 339 337 330 318 310 311 315 327 252 261 230 300 356 220 54 151 133 124 140 232 130 117 127 136 124 147 171 174 158
354 356 359 356 357 356 357 358 355 354 355 355 353 350 348 346 342 338 336 331 324 311 298 301 303 294 255 223 224 240 181 118 100 110 117 117 117 99 64 120 116 174 198 207 165 175 157
345 348 350 351 352 351 354 355 352 350 350 351 350 346 343 343 340 335 332 327 317 300 293 281 292 272 269 216 213 218 169 163 148 112 94 116 83 86 145 172 176 203 237 219 190 201 157
329 328 333 341 338 342 341 343 347 349 350 349 348 345 342 341 339 335 333 325 310 293 306 274 282 286 199 234 175 180 167 152 161 151 142 154 115 172 175 197 229 210 219 222 224 191 206
313 315 317 316 322 329 330 331 336 337 340 345 347 344 341 341 339 338 342 343 11 120 153 236 229 268 255 141 181 200 167 149 140 208 209 167 207 211 208 212 242 186 220 228 207 171 203
311 313 309 312 308 315 317 320 320 327 333 335 339 343 344 344 338 357 3 45 50 328 300 245 238 256 243 251 267 207 171 195 195 214 160 188 234 236 122 193 200 203 227 235 186 167 214
315 315 312 314 312 307 307 310 313 315 323 328 333 336 342 346 346 9 48 55 352 313 272 294 192 222 271 191 253 202 188 176 210 210 208 229 275 166 179 178 199 220 228 225 251 167 233
318 320 318 315 312 308 303 305 305 306 313 320 325 331 338 348 16 358 104 355 345 321 285 235 160 111 113 334 255 15 212 248 195 239 207 245 190 177 190 211 203 227 216 216 191 201 249
319 320 320 320 322 321 315 306 305 307 309 311 317 324 333 355 334 343 329 342 338 169 308 72 156 86 121 154 338 125 337 224 237 189 194 218 192 188 208 219 188 229 150 187 201 228 272
323 322 322 324 325 326 325 325 325 317 315 312 309 310 322 336 338 343 335 315 158 180 246 277 148 176 167 178 167 246 282 281 334 198 230 265 338 238 258 100 189 140 113 98 115 210 245
321 322 320 319 319 321 316 310 304 315 314 309 312 298 306 316 294 338 324 270 235 217 327 277 289 219 258 201 205 184 183 207 213 187 226 202 213 182 181 138 126 200 168 193 215 208 249
313 315 322 324 323 320 315 309 308 313 316 309 304 294 288 286 283 296 316 10 215 243 257 95 161 188 225 179 220 196 199 229 225 235 178 213 244 181 183 223 204 198 212 208 231 216 227
316 312 313 317 322 324 320 316 310 303 295 303 310 273 277 275 239 182 98 219 213 206 267 284 254 238 234 218 227 197 223 245 220 196 211 203 235 178 197 173 188 179 218 298 288 136 269
308 311 310 315 318 322 323 322 318 315 304 302 265 233 211 251 164 155 144 225 242 256 312 278 276 257 272 276 214 207 191 208 234 199 217 231 258 188 155 176 201 237 146 180 217 234 241
293 299 307 308 305 309 316 321 321 316 318 290 256 258 165 156 139 121 222 219 239 251 197 239 266 274 269 281 222 239 256 257 226 196 206 218 222 139 162 209 196 176 199 221 271 234 256
295 290 292 294 298 303 302 309 315 311 320 288 264 252 159 152 120 269 197 196 278 244 241 244 260 256 264 266 278 269 259 247 29 173 186 216 261 239 208 144 327 247 225 196 210 200 236
294 287 283 282 289 298 308 296 304 306 293 291 250 173 177 222 237 231 244 256 235 244 245 187 254 233 284 264 245 231 257 91 59 297 4 282 228 241 216 208 145 216 214 235 255 339 237
301 295 293 284 281 290 304 303 288 296 277 234 274 216 142 209 337 287 256 219 220 239 243 252 246 264 253 246 238 263 249 219 139 159 350 19 293 255 253 267 134 205 204 208 201 229 247
300 296 290 288 281 280 290 301 286 285 281 215 218 236 175 187 214 209 179 252 221 265 227 195 235 219 240 259 251 245 254 255 254 206 158 168 245 269 310 314 298 291 239 209 209 226 220
293 295 292 285 279 272 275 292 287 278 274 228 261 237 257 260 142 178 194 199 260 264 221 244 240 278 270 241 251 286 298 241 238 159 208 161 259 257 272 242 3 296 270 239 235 247 250
290 292 295 287 282 271 261 280 284 265 251 236 231 249 232 253 192 192 217 234 236 210 227 251 277 291 281 274 264 280 275 262 250 191 185 182 212 214 254 252 300 277 245 231 216 228 229
289 290 288 284 281 281 259 266 273 265 245 236 233 170 241 251 237 238 250 230 246 263 258 268 271 263 323 323 294 256 260 262 229 217 190 187 196 201 263 139 224 281 47 9 247 270 233
289 289 288 282 276 274 269 256 264 268 254 242 239 207 232 257 231 234 245 248 274 278 265 269 259 284 315 278 288 292 246 254 235 222 190 243 182 206 229 216 307 247 179 173 190 240 326
287 288 287 281 274 274 270 253 262 268 267 252 231 228 238 248 235 260 267 229 253 243 255 220 168 224 243 248 239 248 257 287 235 224 216 180 173 218 162 248 235 66 104 127 220 257 141
285 286 280 276 277 271 256 252 259 267 272 256 233 226 209 205 221 205 238 230 205 290 282 249 194 197 242 223 245 256 252 318 271 257 162 172 190 213 207 236 282 76 105 91 219 9 138
286 291 283 281 269 261 246 254 257 264 267 253 235 221 200 214 170 198 171 168 204 180 257 78 266 179 198 232 251 259 277 348 292 9 208 214 188 195 169 213 248 10 109 262 348 22 118
287 291 287 273 268 262 255 258 259 253 255 235 195 206 211 349 73 145 134 157 76 45 152 212 313 200 225 242 240 282 271 236 273 281 358 295 356 325 300 27 72 30 28 22 360 117 120
Height
871 869 868 865 864 863 861 860 858 857 855 852 850 848 846 844 841 839 836 833 830 828 826 825 823 822 821 820 814 813 812 811 809 809 809 810 807 806 808 811 815 814 823 828 830 831 832
872 870 868 866 864 862 861 859 858 857 855 853 851 849 846 843 840 837 834 832 829 827 826 824 822 821 822 821 813 812 811 811 809 808 808 809 808 807 811 817 815 823 824 831 832 833 836
871 870 869 867 865 864 861 859 857 855 854 852 850 848 845 842 839 836 833 829 827 826 824 824 823 820 821 815 812 812 810 811 809 807 807 809 810 808 811 818 823 824 826 830 831 832 833
872 871 869 867 865 864 862 860 859 856 854 852 848 845 843 840 837 834 831 828 825 823 823 823 823 822 814 810 811 812 811 810 810 808 807 808 809 812 813 819 823 821 821 821 823 830 836
873 871 869 867 865 864 862 860 858 856 855 852 849 845 842 838 834 831 828 824 821 821 821 821 822 823 814 811 811 811 810 810 811 811 809 808 809 814 819 815 819 824 809 818 822 824 831
870 869 868 867 866 864 862 859 857 854 852 851 849 845 842 838 834 829 824 819 816 818 821 820 821 824 814 810 810 809 810 810 811 812 811 808 810 810 814 811 808 805 815 816 809 819 826
870 868 866 865 863 862 861 858 856 854 852 849 846 843 840 837 833 829 822 818 818 818 819 814 813 812 812 812 811 810 809 810 810 810 810 812 807 803 795 797 801 801 804 806 809 816 819
867 866 864 862 861 859 858 856 854 852 851 848 845 841 837 834 831 829 826 827 831 832 819 809 809 811 811 812 812 810 811 811 810 808 813 814 804 789 803 805 807 807 805 803 813 819 819
866 864 863 861 860 858 856 854 853 851 849 847 844 841 837 833 828 830 832 834 834 833 824 806 808 808 810 812 808 806 809 807 807 810 809 799 796 803 802 809 808 803 800 799 801 817 817
864 863 861 859 857 856 855 853 851 849 847 845 843 841 837 833 832 828 829 832 832 834 823 804 807 807 808 811 810 810 809 808 807 805 810 803 799 802 803 801 800 799 797 803 807 809 803
862 860 859 858 856 854 852 851 849 848 846 844 842 840 838 836 835 833 833 829 828 831 835 807 808 807 807 807 815 810 811 808 804 804 809 795 803 804 801 794 797 794 804 804 807 805 811
860 858 856 855 854 852 851 849 847 846 845 843 841 838 837 837 835 835 832 830 827 828 834 805 808 808 807 807 806 809 811 810 808 807 805 799 805 801 793 804 799 808 807 811 813 810 811
858 856 855 852 851 849 848 845 844 843 842 841 838 836 836 836 834 833 832 831 832 828 805 803 807 811 808 804 805 804 807 809 802 810 798 800 797 800 803 802 808 803 798 801 808 813 786
857 854 853 850 848 847 845 844 842 839 838 838 837 835 832 833 833 833 833 832 839 816 806 806 808 811 804 800 800 803 802 798 800 801 797 796 791 792 792 786 787 795 782 780 784 780 762
854 853 851 849 847 845 843 840 838 836 835 832 832 831 832 831 831 831 837 843 824 816 801 803 805 803 794 799 800 802 799 788 777 787 786 782 777 795 795 794 790 794 794 778 779 797 785
850 848 848 847 846 843 842 839 838 835 833 830 829 827 826 829 831 832 835 825 821 814 810 809 804 791 786 792 802 800 787 772 774 771 766 764 771 790 793 795 795 790 782 787 784 782 768
846 845 844 844 843 841 839 838 835 834 831 831 829 825 827 826 828 833 828 820 819 810 810 814 808 801 790 792 795 794 775 770 769 774 773 765 769 786 794 782 762 786 780 783 779 770 751
842 841 840 838 837 837 836 834 832 830 831 830 828 823 828 827 833 838 829 823 817 810 810 810 810 807 808 799 793 789 772 769 776 777 774 765 761 751 763 777 783 764 755 757 752 755 763
838 837 835 835 834 833 832 831 829 828 830 831 823 823 830 832 818 818 817 818 815 813 807 807 812 808 800 800 807 791 779 778 783 787 782 776 756 755 758 776 784 772 762 759 747 761 730
834 832 831 830 830 829 829 827 826 825 826 828 825 818 830 830 828 821 817 817 817 815 812 809 812 811 812 805 794 785 775 774 785 786 786 789 777 738 724 717 733 752 753 751 751 744 722
830 828 827 826 825 825 824 824 823 822 822 825 820 810 808 818 821 822 823 823 814 811 810 810 810 806 801 797 790 782 775 772 769 774 785 790 776 765 759 760 756 749 743 744 742 720 727
823 822 820 820 820 819 820 820 820 820 819 820 816 809 811 805 809 816 819 816 809 802 806 805 805 793 795 797 792 779 777 773 767 782 783 792 772 761 753 758 764 759 749 748 743 732 723
817 818 816 814 812 812 813 815 815 816 817 814 810 810 809 800 804 807 802 798 800 807 801 797 795 797 797 786 785 785 782 777 770 770 776 781 775 771 752 746 766 755 731 735 736 737 729
811 810 809 809 808 804 806 808 807 810 812 811 807 808 807 796 795 795 797 799 798 798 800 795 799 799 795 796 791 787 783 778 774 770 767 768 767 763 747 767 748 721 753 751 736 737 734
805 803 802 803 802 800 799 800 801 803 805 804 805 805 806 796 797 797 797 795 793 795 797 795 793 798 801 796 783 772 770 772 764 770 766 770 757 749 748 747 725 721 750 748 740 731 760
797 796 796 794 795 794 793 793 795 796 797 797 797 800 799 798 789 791 791 792 792 789 791 794 800 801 800 790 780 764 747 751 752 763 773 772 768 754 755 739 719 738 753 759 759 730 763
793 788 787 789 788 786 785 786 787 789 791 792 790 791 794 794 792 793 790 791 795 795 788 791 795 796 798 784 774 761 750 765 746 746 762 764 760 747 747 738 732 753 759 762 733 743 767
786 781 780 780 779 777 779 780 781 783 785 787 785 784 786 788 789 792 792 792 794 794 789 794 793 792 792 784 773 761 760 761 761 763 763 756 750 748 747 744 732 767 765 757 772 776 773
780 777 773 774 773 773 774 774 775 776 779 780 779 781 784 786 791 792 793 793 793 795 795 794 789 788 784 780 777 772 763 767 765 745 772 757 762 753 753 752 775 776 777 777 775 774 779